Satellite: PO-28
Catalog number: 22829
Epoch time:      08191.83860853
Element set:    0990
Inclination:      098.3661 deg
RA of node:       153.0120 deg
Eccentricity:    0.0009829
Arg of perigee:   156.9885 deg
Mean anomaly:     203.1731 deg
Mean motion:   14.30192843 rev/day
Decay rate:        5.4e-07 rev/day^2
Epoch rev:           77136
Checksum:              322

Satellite: GO-32
Catalog number: 25397
Epoch time:      08192.59310110
Element set:     643
Inclination:      098.3619 deg
RA of node:       226.5987 deg
Eccentricity:    0.0001698
Arg of perigee:   139.9933 deg
Mean anomaly:     220.1374 deg
Mean motion:   14.23144938 rev/day
Decay rate:      -1.67e-06 rev/day^2
Epoch rev:           51954
Checksum:              327

Satellite: NO-44
Catalog number: 26931
Epoch time:      08192.58373009
Element set:     923
Inclination:      067.0508 deg
RA of node:       224.3839 deg
Eccentricity:    0.0007256
Arg of perigee:   270.8377 deg
Mean anomaly:     089.1865 deg
Mean motion:   14.29528293 rev/day
Decay rate:       1.17e-06 rev/day^2
Epoch rev:           35375
Checksum:              333

Satellite: SO-50
Catalog number: 27607
Epoch time:      08191.70763762
Element set:    0647
Inclination:      064.5606 deg
RA of node:       345.2435 deg
Eccentricity:    0.0086193
Arg of perigee:   274.9078 deg
Mean anomaly:     084.2110 deg
Mean motion:   14.71369411 rev/day
Decay rate:       5.12e-06 rev/day^2
Epoch rev:           29828
Checksum:              318

Satellite: CO-55
Catalog number: 27844
Epoch time:      08191.69365489
Element set:    0348
Inclination:      098.7152 deg
RA of node:       199.6469 deg
Eccentricity:    0.0011036
Arg of perigee:   054.3085 deg
Mean anomaly:     305.9110 deg
Mean motion:   14.20587020 rev/day
Decay rate:        1.7e-07 rev/day^2
Epoch rev:           26063
Checksum:              315

Satellite: CO-57
Catalog number: 27848
Epoch time:      08191.55388859
Element set:     297
Inclination:      098.7157 deg
RA of node:       198.6008 deg
Eccentricity:    0.0010739
Arg of perigee:   057.1364 deg
Mean anomaly:     303.0848 deg
Mean motion:   14.20395722 rev/day
Decay rate:        1.9e-07 rev/day^2
Epoch rev:           26058
Checksum:              347

Satellite: AO-51
Catalog number: 28375
Epoch time:      08191.76088940
Element set:    0145
Inclination:      098.0695 deg
RA of node:       215.0605 deg
Eccentricity:    0.0085085
Arg of perigee:   083.9743 deg
Mean anomaly:     277.1127 deg
Mean motion:   14.40613020 rev/day
Decay rate:        3.0e-08 rev/day^2
Epoch rev:           21165
Checksum:              296

Satellite: CO-56
Catalog number: 28941
Epoch time:      08192.83844229
Element set:     206
Inclination:      098.1073 deg
RA of node:       306.8057 deg
Eccentricity:    0.0161458
Arg of perigee:   315.2514 deg
Mean anomaly:     043.5692 deg
Mean motion:   15.58051348 rev/day
Decay rate:      7.197e-05 rev/day^2
Epoch rev:           13372
Checksum:              324

Satellite: CP4
Catalog number: 31122
Epoch time:      08191.71621500
Element set:    0385
Inclination:      098.0406 deg
RA of node:       256.4740 deg
Eccentricity:    0.0084363
Arg of perigee:   258.3420 deg
Mean anomaly:     100.8266 deg
Mean motion:   14.55140808 rev/day
Decay rate:       5.49e-06 rev/day^2
Epoch rev:           06535
Checksum:              278

Satellite: CP3
Catalog number: 31128
Epoch time:      08192.83439520
Element set:     376
Inclination:      098.0390 deg
RA of node:       255.2747 deg
Eccentricity:    0.0101475
Arg of perigee:   261.5662 deg
Mean anomaly:     097.4039 deg
Mean motion:   14.51958710 rev/day
Decay rate:       -4.8e-07 rev/day^2
Epoch rev:            6536
Checksum:              311

/EX
SB KEPS @ AMSAT  $ORB08192.W
Orbital Elements  08192.WEATHER

HR AMSAT ORBITAL ELEMENTS FOR WEATHER SATELLITES
FROM WA5QGD FORT WORTH,TX July 10, 2008
Send Subscribe/unsubscribe to KEPS at 
http://www.amsat.org/mailman/listinfo/keps
BID: ORB08192.W
TO ALL RADIO AMATEURS BT

Satellite: NOAA-10
Catalog number: 16969
Epoch time:      08191.58633975
Element set:    0193
Inclination:      098.7208 deg
RA of node:       213.5107 deg
Eccentricity:    0.0013060
Arg of perigee:   113.8153 deg
Mean anomaly:     246.4403 deg
Mean motion:   14.27363662 rev/day
Decay rate:        3.2e-07 rev/day^2
Epoch rev:           13463
Checksum:              291

Satellite: NOAA-11
Catalog number: 19531
Epoch time:      08191.72645729
Element set:    0230
Inclination:      098.7985 deg
RA of node:       280.7385 deg
Eccentricity:    0.0011625
Arg of perigee:   008.3116 deg
Mean anomaly:     351.8253 deg
Mean motion:   14.14873713 rev/day
Decay rate:       2.56e-06 rev/day^2
Epoch rev:           02109
Checksum:              301

Satellite: NOAA-12
Catalog number: 21263
Epoch time:      08191.80269791
Element set:    0747
Inclination:      098.7658 deg
RA of node:       193.7522 deg
Eccentricity:    0.0013412
Arg of perigee:   062.6124 deg
Mean anomaly:     297.6383 deg
Mean motion:   14.25537962 rev/day
Decay rate:        1.6e-07 rev/day^2
Epoch rev:           89161
Checksum:              325

